Wind from 330 at 4 knots gusting 7

Air temperature 23.9° C
Dewpoint 16.9° C

Last reported at 2014-Apr-23 23:38 UTC.
Time now 2014-Apr-24 00:24 UTC

Location: N 24°43' W 081°23'.
View on Google Maps.

See reports from other nearby stations

Tides Stations Pressure Air Temp Water Temp Dewpoint Dewpoint depression Visibility Wind Speed Wind Dir Waves Ship positions

  
sailing weather and tide predictions

NATIONAL KEY DEER NWR FL US weather

date/time (UTC)wind fromknots sea level pressurealtimeterstation pressurevisibilityair tempwater tempwave heightnotes
2014-Apr-23 23:38 330 4 gusting 7 23.9
2014-Apr-23 22:38 331 4 gusting 7 26.1
2014-Apr-23 21:38 310 4 gusting 8 27.2
2014-Apr-23 20:38 306 4 gusting 10 27.8
2014-Apr-23 19:38 292 4 gusting 10 28.9
2014-Apr-23 18:38 353 6 gusting 10 27.8
2014-Apr-23 17:38 338 5 gusting 11 27.8
2014-Apr-23 16:38 346 4 gusting 9 27.8
2014-Apr-23 15:38 304 4 gusting 8 27.2
2014-Apr-23 14:38 314 4 gusting 7 26.1
2014-Apr-23 13:38 343 3 gusting 6 26.1
2014-Apr-23 12:38 325 2 gusting 5 24.4
2014-Apr-23 11:38 278 0 gusting 3 19.4
2014-Apr-23 10:38 314 2 gusting 3 18.9
2014-Apr-23 09:38 334 1 gusting 3 20.0
2014-Apr-23 08:38 300 2 gusting 6 21.1
2014-Apr-23 07:38 308 3 gusting 6 20.6
2014-Apr-23 06:38 307 2 gusting 4 20.0
2014-Apr-23 05:38 323 1 gusting 4 18.9
2014-Apr-23 04:38 313 2 gusting 3 20.0
2014-Apr-23 03:38 308 2 gusting 3 20.0
2014-Apr-23 02:38 314 1 gusting 4 21.1
2014-Apr-23 01:38 309 1 gusting 5 21.7
2014-Apr-23 00:38 308 3 gusting 8 22.2
2014-Apr-22 23:38 330 5 gusting 10 23.3
2014-Apr-22 22:38 341 5 gusting 12 23.9
2014-Apr-22 21:38 347 6 gusting 13 26.1
2014-Apr-22 20:38 349 7 gusting 13 26.7
2014-Apr-22 19:38 350 6 gusting 13 27.2
2014-Apr-22 18:38 002 6 gusting 11 26.7
2014-Apr-22 17:38 355 6 gusting 12 27.8
2014-Apr-22 16:38 031 4 gusting 6 27.2
2014-Apr-22 15:38 054 4 gusting 6 27.8
2014-Apr-22 14:38 053 4 gusting 6 26.1
2014-Apr-22 13:38 036 3 gusting 7 26.1
2014-Apr-22 12:38 037 4 gusting 8 24.4
2014-Apr-22 11:38 041 4 gusting 7 23.3
2014-Apr-22 10:38 036 3 gusting 7 22.2
2014-Apr-22 09:38 035 3 gusting 7 22.2
2014-Apr-22 08:38 034 4 gusting 8 22.8
2014-Apr-22 07:38 021 3 gusting 5 22.2
2014-Apr-22 06:38 040 3 gusting 7 22.8
2014-Apr-22 05:38 339 2 gusting 7 21.7
2014-Apr-22 04:38 359 4 gusting 9 22.8
2014-Apr-22 03:38 345 4 gusting 8 22.2
2014-Apr-22 02:38 345 5 gusting 8 22.2
2014-Apr-22 01:38 334 5 gusting 12 21.7
2014-Apr-22 00:38 322 6 gusting 11 21.7